Regional Weather Roundup
Issued by NWS

Home | Current Version | Previous Version | Graphics & Text | Print | Product List | Glossary On
Versions: 1 2 3 4 5 6 7 8 9 10 11 12 13 14 15 16 17 18 19 20 21 22 23 24 25 26 27 28 29 30 31 32 33 34 35 36 37 38 39 40 41 42 43 44 45 46 47 48 49 50
000
ASUS43 KBIS 010020
RWRND

NORTH DAKOTA REGIONAL WEATHER ROUNDUP
NATIONAL WEATHER SERVICE BISMARCK ND
700 PM CDT FRI OCT 31 2014

NOTE: "FAIR" INDICATES FEW OR NO CLOUDS BELOW 12,000 FEET WITH NO
SIGNIFICANT WEATHER AND/OR OBSTRUCTIONS TO VISIBILITY.


NDZ001>003-009>011-017-010100-
NORTHWEST NORTH DAKOTA

CITY           SKY/WX    TMP DP  RH WIND       PRES   REMARKS
WILLISTON      CLOUDY    43  20  39 S14G22    29.98S
6HR MIN TEMP:  39; 6HR MAX TEMP:  49;

MINOT          PTCLDY    37  11  34 SE17G30   30.11F
MINOT AFB      PTCLDY    36  15  41 SE21      30.10F
$$

NDZ018>021-031>035-040>046-010100-
SOUTHWEST NORTH DAKOTA

CITY           SKY/WX    TMP DP  RH WIND       PRES   REMARKS
BISMARCK       PTCLDY    35  15  44 SE12      30.20F
6HR MIN TEMP:  35; 6HR MAX TEMP:  42;

DICKINSON      PTCLDY    39  16  39 S25G37    30.01F
GARRISON         N/A     37  15  40 SE18G32   30.12F
6HR MIN TEMP:  34; 6HR MAX TEMP:  41;

HETTINGER ARPT PTCLDY    39  15  37 SE15G30   30.06S
$$

NDZ004>008-012>016-024-026-027-054-010100-
NORTHEAST NORTH DAKOTA

CITY           SKY/WX    TMP DP  RH WIND       PRES   REMARKS
GRAND FORKS    PTCLDY    32  19  58 SE9       30.39F
GRND FRKS AFB  CLEAR     30  19  64 SE10      30.38F
DEVILS LAKE    CLEAR     34  16  47 S18G25    30.25F
$$

NDZ022-023-025-028>030-036>039-047>053-010100-
SOUTHEAST NORTH DAKOTA

CITY           SKY/WX    TMP DP  RH WIND       PRES   REMARKS
FARGO          CLEAR     36  19  50 SE12      30.42F
6HR MIN TEMP:  35; 6HR MAX TEMP:  41;

JAMESTOWN      CLEAR     32  18  56 SE12      30.32F
$$




USA.gov is the U.S. government's official web portal to all federal, state and local government web resources and services.